Voltar ao catálogo

COSMOS 249 DEB

AtivoLEO
NORAD 14412·DEBRIS·🇷🇺 Russia

Lançado Oct 20, 1968 de Baikonur Cosmodrome

Loading…

Próximas Passagens (próximas 24 horas)

TLE

AtualizadoSource: Space-Track

Época: Sep 14, 2026, 20:46 UTC

1 14412U 68091CN  26257.86536515  .00001074  00000-0  13943-2 0  9991
2 14412  62.2926 213.8932 0750686 351.1864   7.6526 12.84366978 98691

Acompanhe COSMOS 249 DEB em tempo real com AllMySat

Download on the App Store